Home   Weather   Gainesville   Past weeks

Flag for USA Past Weather in Gainesville, Florida, USA — Yesterday and Last 2 Weeks

Now
73 °F

Light rain. Passing clouds.


Feels Like: 69 °F
Forecast: 73 / 85 °F
Wind: 3 mph from Southeast

Location: Gainesville Regional Airport

Current Time: Jul 23, 2017 at 6:42:43 am

Latest Report: Jul 23, 2017 at 5:53 am


Visibility: 10 mi

Pressure: 30.03 "Hg

Humidity: 97%

Dew Point: 72 °F

Location of GainesvilleLocation

Past Weather in Gainesville — Graph

°F

Gainesville Temperature Yesterday

Maximum temperature yesterday: 87 °F (at 1:29 pm)
Minimum temperature yesterday: 73 °F (at 5:53 am)
Average temperature yesterday: 77 °F

High & Low Weather Summary for the Past Weeks

 TemperatureHumidityPressure
High93 °F (Jul 16, 3:17 pm)100% (Jul 12, 7:24 am)30.18 "Hg (Jul 12, 7:24 am)
Low69 °F (Jul 21, 12:53 am)49% (Jul 16, 3:34 pm)29.93 "Hg (Jul 16, 2:53 pm)
Average79 °F84%30.07 "Hg
* Reported Jul 8 5:53 am — Jul 23 5:01 am, Gainesville. Weather by CustomWeather, © 2017

Note: Actual official high and low records may vary slightly from our data, if they occured in-between our weather recording intervals... More about our weather records

Advertising

Gainesville Weather History for the Previous 24 Hours

Scroll right to see more
 ConditionsComfort  
Time TempWeatherWind HumidityBarometerVisibility
5:01 am
Sun, Jul 23
74 °FStrong thunderstorms. Fog.3 mph97%30.04 "Hg2 mi
4:38 am75 °FThundershowers. Fog.7 mph96%30.05 "Hg1 mi
4:17 am75 °FPartly cloudy.No wind96%30.03 "Hg10 mi
3:53 am75 °FPassing clouds.No wind96%30.02 "Hg10 mi
2:53 am75 °FPassing clouds.3 mph100%30.04 "Hg10 mi
2:21 am75 °FPassing clouds.5 mph96%30.05 "Hg10 mi
12:53 am76 °FClear.3 mph97%30.05 "Hg10 mi
11:53 pm
Sat, Jul 22
76 °FPassing clouds.7 mph97%30.06 "Hg10 mi
11:37 pm76 °FPassing clouds.6 mph97%30.06 "Hg10 mi
10:59 pm75 °FPassing clouds.3 mph96%30.07 "Hg10 mi
9:53 pm76 °FClear.3 mph94%30.05 "Hg10 mi
8:53 pm76 °FClear.No wind94%30.04 "Hg10 mi
7:53 pm75 °FPassing clouds.3 mph96%30.03 "Hg10 mi
7:35 pm75 °FPartly sunny.3 mph96%30.05 "Hg10 mi
6:53 pm75 °FLight rain. Scattered clouds.3 mph96%30.05 "Hg10 mi
5:53 pm74 °FLight rain. Mostly cloudy.6 mph97%30.06 "Hg10 mi
5:23 pm75 °FLight rain. More clouds than sun.3 mph94%30.07 "Hg10 mi
4:53 pm75 °FLight rain. Overcast.No wind94%30.07 "Hg10 mi
4:35 pm75 °FLight rain. Partly sunny.No wind94%30.09 "Hg10 mi
3:53 pm74 °FLight rain. Scattered clouds.No wind97%30.05 "Hg7 mi
3:25 pm74 °FLight rain. Scattered clouds.6 mph94%30.07 "Hg9 mi
2:53 pm73 °FThunderstorms. Fog.7 mph94%30.09 "Hg3 mi
2:42 pm73 °FStrong thunderstorms. Fog.3 mph100%30.10 "Hg1 mi
2:33 pm73 °FStrong thunderstorms. Fog.7 mph97%30.09 "Hg1 mi
2:05 pm81 °FThundershowers. Cloudy.10 mph79%30.07 "Hg10 mi
1:53 pm81 °FThunderstorms. Partly sunny.7 mph74%30.06 "Hg10 mi
1:29 pm87 °FThunderstorms. Sunny.5 mph69%30.08 "Hg10 mi
12:53 pm84 °FPassing clouds.6 mph74%30.08 "Hg10 mi
12:34 pm85 °FPassing clouds.5 mph70%30.09 "Hg10 mi
12:03 pm83 °FThundershowers. Mostly cloudy.6 mph79%30.10 "Hg10 mi
11:53 am82 °FLight rain. Scattered clouds.8 mph85%30.09 "Hg10 mi
10:53 am86 °FPassing clouds.5 mph70%30.09 "Hg10 mi
9:53 am83 °FSunny.6 mph77%30.11 "Hg10 mi
8:53 am80 °FSunny.5 mph85%30.10 "Hg10 mi
7:53 am76 °FSunny.No wind91%30.08 "Hg10 mi
6:53 am73 °FSunny.No wind97%30.06 "Hg10 mi
Weather by CustomWeather, © 2017

See weather overviewHow to use our weather pages